[[{"header":{"parameterUnit":"m.s-1","parameterCategory":1,"la1":30.2991,"la2":30.254,"lo1":-89.0895,"lo2":-89.0444,"dy":0.0017,"dx":0.0017,"nx":28,"ny":28,"refTime":"2024-05-11T21:00:00:Z","depth":0,"parameterNumber":2,"parameterNumberName":"U-component_of_WINDS"},"data":[0,0,0,0,0,0,0,0,0,0,0,0,0,0,0,0,0,0,0,0,0,0,0,0,0,0,0,0,0,0,0,0,0,0,0,0,0,0,0,0,0,0,0,0,0,0,0,0,0,0,0,0,0,0,0,0,0,0,-3.0071,-3.0073,0,-3.0207,-3.0208,-3.021,-3.0254,-3.0254,-3.0253,-3.0253,-3.0393,-3.0398,-3.0402,0,0,0,0,0,0,0,0,0,0,0,0,0,-2.9853,-2.9857,-3.0071,-3.0073,-3.0075,-3.0207,-3.0208,-3.021,-3.0255,-3.0254,-3.0253,-3.0252,-3.0392,-3.0397,-3.0402,0,0,0,0,0,0,0,0,0,0,0,0,0,-2.9964,-2.9858,-3.0071,-3.0113,-3.0118,-3.0206,-3.0209,-3.0211,-3.0255,-3.0254,-3.0253,-3.0252,-3.039,-3.0397,-3.0403,-3.0461,0,0,-3.0423,-3.0425,0,0,0,0,0,0,0,0,-2.9958,-2.9972,-3.0105,-3.011,-3.0116,-3.0213,-3.0183,-3.0295,-3.0255,-3.0203,-3.0253,-3.0252,-3.0334,-3.0345,-3.0373,-3.0467,-3.0473,-3.0423,-3.0427,-3.043,-3.0432,0,0,0,0,0,0,0,-2.995,-2.9966,-3.0125,-3.0107,-3.0113,-3.0125,-3.014,-3.0204,-3.0272,-3.0207,-3.0211,-3.0226,-3.0337,-3.0366,-3.0376,-3.0475,-3.0423,-3.0429,-3.0433,-3.0435,-3.0624,-3.0625,0,0,0,0,0,0,-2.9935,-2.996,-3.0121,-3.0129,-3.0033,-3.013,-3.0146,-3.0183,-3.0271,-3.0284,-3.0227,-3.0228,-3.0356,-3.0369,-3.0381,-3.0454,-3.043,-3.0436,-3.044,-3.0623,-3.0624,-3.0626,0,0,0,0,0,0,-2.993,-2.9949,-3.0115,-3.0045,-3.0067,-3.0135,-3.0175,-3.0186,-3.0215,-3.0286,-3.0298,-3.0244,-3.0356,-3.0372,-3.044,-3.046,-3.0439,-3.0445,-3.0622,-3.0623,-3.0625,-3.0601,0,0,0,0,0,0,-2.9924,-2.9947,-2.9969,-3.0046,-3.0071,-3.0171,-3.0176,-3.0189,-3.0226,-3.0228,-3.0306,-3.0318,-3.0356,-3.0431,-3.0447,-3.0468,-3.045,-3.062,-3.0622,-3.0624,-3.06,-3.0601,-3.0603,0,0,0,0,0,-2.9916,-2.9957,-2.997,-2.9989,-3.01,-3.0172,-3.0187,-3.023,-3.0227,-3.025,-3.0296,-3.0315,-3.0455,-3.0437,-3.0456,-3.048,-3.0619,-3.0622,-3.0624,-3.06,-3.0601,-3.0603,0,0,0,0,0,0,-2.9882,-2.9968,-2.9983,-3.005,-3.0103,-3.0179,-3.021,-3.023,-3.0286,-3.0286,-3.0338,-3.0355,-3.0419,-3.0457,-3.0435,-3.054,-3.0538,-3.0545,-3.0513,-3.0515,-3.0516,-3.0506,-3.0455,0,0,0,0,0,-2.9882,-2.9933,-3.0006,-3.0058,-3.0084,-3.0142,-3.0175,-3.0204,-3.0261,-3.0284,-3.0335,-3.0391,-3.0447,-3.0484,-3.054,-3.0606,-3.0624,-3.0632,-3.0633,-3.0634,-3.0638,-3.0676,-3.0681,-3.0634,-3.0634,-3.0634,0,0,-2.9883,-2.9936,-2.9966,-3.0053,-3.0097,-3.0149,-3.0161,-3.0216,-3.0255,-3.0293,-3.036,-3.0399,-3.0465,-3.0532,-3.0564,-3.0565,-3.0655,-3.0637,-3.0637,-3.0642,-3.0679,-3.0684,-3.0687,-3.0636,-3.0636,-3.0635,0,0,-2.9912,-2.9957,-3.0006,-3.005,-3.0117,-3.0156,-3.0167,-3.024,-3.0268,-3.0336,-3.0365,-3.0413,-3.051,-3.0555,-3.0591,-3.0637,-3.0657,-3.0654,-3.066,-3.0696,-3.07,-3.0703,-3.0719,-3.0724,-3.0659,-3.0659,-3.0659,0,-2.9905,-2.9983,-3.0028,-3.0081,-3.0119,-3.0155,-3.0205,-3.0246,-3.0328,-3.0353,-3.0353,-3.0475,-3.0522,-3.06,-3.0611,-3.0639,-3.0654,-3.0645,-3.0696,-3.07,-3.0704,-3.0719,-3.0725,-3.0658,-3.0658,-3.0658,-3.0658,0,-2.9972,-3.0026,-3.0057,-3.0134,-3.0176,-3.0227,-3.028,-3.0316,-3.0341,-3.038,-3.0449,-3.0507,-3.0575,-3.0596,-3.0621,-3.0678,-3.0676,-3.0685,-3.0684,-3.0706,-3.0722,-3.0728,-3.0656,-3.0657,-3.0657,-3.0657,0,0,-2.9982,-3.0083,-3.0094,-3.0129,-3.0206,-3.0249,-3.0303,-3.0369,-3.0399,-3.0455,-3.05,-3.0581,-3.059,-3.0631,-3.0662,-3.0693,-3.0726,-3.0699,-3.0701,-3.0701,-3.0791,-3.0783,-3.079,-3.074,-3.0741,-3.0742,-3.0786,0,-3.002,-3.0115,-3.0157,-3.0233,-3.0284,-3.0319,-3.0366,-3.0418,-3.0456,-3.0505,-3.0547,-3.0603,-3.0611,-3.0635,-3.0669,-3.0714,-3.0744,-3.0712,-3.0783,-3.0785,-3.0764,-3.0798,-3.079,-3.0828,-3.0792,-3.0793,-3.0794,0,-3.0077,-3.0132,-3.0212,-3.0283,-3.0306,-3.0346,-3.041,-3.0457,-3.0517,-3.0543,-3.0588,-3.0617,-3.0675,-3.067,-3.0751,-3.0728,-3.0759,-3.0786,-3.0789,-3.0797,-3.079,-3.0806,-3.0842,-3.0847,-3.0804,-3.0803,-3.0803,0,-3.0075,-3.017,-3.023,-3.026,-3.0344,-3.0371,-3.0408,-3.0467,-3.0504,-3.056,-3.0585,-3.0647,-3.0681,-3.0729,-3.0775,-3.0768,-3.0851,-3.0851,-3.0874,-3.0873,-3.0889,-3.0887,-3.0929,-3.0911,-3.091,-3.091,-3.091,0,-3.0113,-3.0161,-3.0231,-3.0268,-3.0323,-3.0371,-3.0424,-3.0464,-3.0516,-3.0562,-3.0597,-3.064,-3.0698,-3.0748,-3.0785,-3.0845,-3.0861,-3.0883,-3.0892,-3.0879,-3.0876,-3.09,-3.0899,-3.0912,-3.0912,-3.0911,-3.0911,0,-3.0121,-3.0169,-3.0237,-3.0311,-3.0331,-3.0368,-3.0431,-3.0469,-3.0508,-3.0566,-3.0582,-3.0645,-3.0705,-3.0756,-3.0836,-3.0861,-3.0924,-3.0934,-3.0903,-3.0907,-3.0927,-3.0924,-3.0986,-3.0996,-3.097,-3.097,-3.0971,0,-3.0141,-3.0179,-3.0256,-3.0289,-3.0324,-3.0377,-3.0414,-3.0464,-3.0501,-3.0573,-3.0602,-3.0665,-3.0718,-3.0814,-3.0867,-3.0928,-3.094,-3.0958,-3.095,-3.0936,-3.094,-3.0937,-3.0941,-3.0958,-3.0958,-3.0958,-3.0958,0,-3.0172,-3.0194,-3.0247,-3.0307,-3.0351,-3.0401,-3.0453,-3.0478,-3.0537,-3.0578,-3.064,-3.068,-3.0762,-3.0824,-3.0891,-3.093,-3.0954,-3.096,-3.0969,-3.0956,-3.0936,-3.0946,-3.0903,-3.0958,-3.0958,-3.0958,-3.0958,-3.0958,-3.0187,-3.0222,-3.0281,-3.0338,-3.0382,-3.0429,-3.0468,-3.0512,-3.0564,-3.0633,-3.066,-3.0723,-3.0783,-3.0875,-3.0914,-3.0965,-3.0968,-3.098,-3.0983,-3.0985,-3.0983,-3.0928,-3.0977,-3.0977,-3.0977,-3.0978,-3.0978,0,-3.022,-3.0259,-3.0311,-3.0382,-3.0426,-3.0444,-3.0502,-3.0539,-3.0594,-3.0647,-3.0698,-3.077,-3.083,-3.0887,-3.0951,-3.0981,-3.0993,-3.0996,-3.0994,-3.1002,-3.0977,-3.0963,-3.0984,-3.0984,-3.0984,-3.0984,-3.0984,-3.0984,-3.0242,-3.0301,-3.033,-3.0412,-3.0452,-3.0514,-3.0545,-3.0589,-3.0632,-3.0709,-3.0759,-3.0796,-3.0851,-3.0919,-3.0975,-3.0991,-3.1012,-3.1012,-3.103,-3.1005,-3.1004,-3.1003,-3.099,-3.1016,-3.1016,-3.105,-3.1051,-3.1051]},{"header":{"parameterUnit":"m.s-1","parameterCategory":1,"la1":30.2991,"la2":30.254,"lo1":-89.0895,"lo2":-89.0444,"dy":0.0017,"dx":0.0017,"nx":28,"ny":28,"refTime":"2024-05-11T21:00:00:Z","depth":0,"parameterNumber":3,"parameterNumberName":"V-component_of_WINDS"},"data":[0,0,0,0,0,0,0,0,0,0,0,0,0,0,0,0,0,0,0,0,0,0,0,0,0,0,0,0,0,0,0,0,0,0,0,0,0,0,0,0,0,0,0,0,0,0,0,0,0,0,0,0,0,0,0,0,0,0,6.3362,6.3363,0,6.3395,6.3395,6.3396,6.3311,6.3308,6.3305,6.3303,6.3333,6.3336,6.334,0,0,0,0,0,0,0,0,0,0,0,0,0,6.3224,6.3227,6.3362,6.3363,6.3363,6.3395,6.3395,6.3396,6.3311,6.3308,6.3305,6.3302,6.3332,6.3336,6.334,0,0,0,0,0,0,0,0,0,0,0,0,0,6.3273,6.3228,6.3362,6.3325,6.3322,6.3395,6.3395,6.3396,6.3312,6.3308,6.3304,6.33,6.3331,6.3336,6.334,6.345,0,0,6.3355,6.3358,0,0,0,0,0,0,0,0,6.327,6.3278,6.333,6.3328,6.3324,6.3345,6.3357,6.3414,6.3313,6.3315,6.3303,6.3298,6.334,6.3344,6.3359,6.3452,6.3453,6.3356,6.3359,6.3361,6.3362,0,0,0,0,0,0,0,6.3267,6.3276,6.3375,6.3331,6.3327,6.3305,6.3308,6.3368,6.3349,6.3315,6.3309,6.3314,6.3338,6.3354,6.3359,6.3453,6.3356,6.336,6.3363,6.3365,6.3637,6.3641,0,0,0,0,0,0,6.3269,6.3274,6.3374,6.3376,6.3287,6.3311,6.3314,6.3342,6.3349,6.3346,6.3317,6.331,6.3348,6.3353,6.3359,6.3487,6.3361,6.3366,6.3368,6.3633,6.3638,6.3642,0,0,0,0,0,0,6.3266,6.3278,6.3373,6.3323,6.3334,6.3318,6.335,6.3345,6.3361,6.3351,6.3347,6.3338,6.3345,6.3353,6.3428,6.3487,6.3368,6.3372,6.3627,6.3634,6.364,6.3744,0,0,0,0,0,0,6.3262,6.3278,6.332,6.3325,6.3337,6.3442,6.3354,6.3348,6.337,6.3361,6.3369,6.3366,6.3342,6.3421,6.3433,6.3491,6.3376,6.3622,6.363,6.3638,6.3735,6.3753,6.3769,0,0,0,0,0,6.3258,6.3348,6.3323,6.3335,6.3389,6.3446,6.3452,6.3424,6.3375,6.3417,6.341,6.3366,6.3479,6.343,6.3442,6.3503,6.3618,6.3628,6.3637,6.3728,6.375,6.3768,0,0,0,0,0,0,6.3349,6.3348,6.332,6.3415,6.3431,6.3431,6.3483,6.3448,6.3478,6.3468,6.3431,6.3433,6.3515,6.3517,6.3462,6.3609,6.354,6.3553,6.3605,6.3625,6.3642,6.3639,6.338,0,0,0,0,0,6.3381,6.3428,6.3424,6.3508,6.3517,6.3499,6.3523,6.35,6.3515,6.3521,6.3519,6.3535,6.3574,6.36,6.3635,6.3736,6.3735,6.3784,6.3801,6.3814,6.3825,6.3877,6.3897,6.3674,6.3674,6.3674,0,0,6.3446,6.3451,6.3483,6.3526,6.3536,6.3584,6.3505,6.356,6.3595,6.3529,6.36,6.36,6.3614,6.3703,6.3741,6.3706,6.3887,6.3827,6.3838,6.3841,6.3889,6.391,6.3929,6.368,6.3679,6.3678,0,0,6.3588,6.3598,6.3668,6.368,6.3697,6.3684,6.3701,6.3707,6.3704,6.3776,6.3726,6.3767,6.3836,6.3847,6.3863,6.4011,6.397,6.4023,6.4109,6.416,6.4178,6.4193,6.4244,6.4263,6.4034,6.4035,6.4035,0,6.3667,6.3738,6.3708,6.3766,6.3786,6.373,6.38,6.3812,6.384,6.3854,6.3815,6.3899,6.3905,6.3995,6.4031,6.4046,6.4063,6.4021,6.4178,6.4193,6.4207,6.4255,6.4274,6.4041,6.404,6.4039,6.4039,0,6.3833,6.3883,6.3938,6.3966,6.3992,6.4056,6.4035,6.4065,6.404,6.4031,6.4103,6.4109,6.4144,6.4164,6.414,6.425,6.4228,6.4185,6.4114,6.4235,6.4279,6.4298,6.405,6.4047,6.4046,6.4044,0,0,6.4032,6.4044,6.4064,6.4076,6.409,6.4128,6.4189,6.4224,6.4249,6.427,6.4319,6.4379,6.4338,6.4356,6.4332,6.4378,6.4492,6.4328,6.4328,6.4357,6.4612,6.4643,6.4665,6.4466,6.447,6.4473,6.461,0,6.4171,6.4276,6.4251,6.4354,6.44,6.4347,6.44,6.4414,6.4408,6.4444,6.4437,6.4479,6.4424,6.4434,6.4476,6.4469,6.4542,6.4459,6.4509,6.4512,6.4505,6.4688,6.4721,6.485,6.4627,6.463,6.4632,0,6.4347,6.4375,6.4484,6.449,6.4508,6.4556,6.4585,6.4622,6.4636,6.4628,6.4648,6.4616,6.4675,6.4606,6.4686,6.463,6.4649,6.4649,6.4653,6.4655,6.4578,6.4692,6.4891,6.4909,6.466,6.4657,6.4655,0,6.4479,6.4544,6.4617,6.4629,6.4639,6.4673,6.4679,6.469,6.4712,6.4738,6.4752,6.4784,6.4802,6.4827,6.4804,6.4756,6.4887,6.4816,6.488,6.4881,6.4908,6.4906,6.511,6.4925,6.4924,6.4924,6.4924,0,6.4636,6.4703,6.4676,6.4721,6.4795,6.4765,6.4839,6.4838,6.4848,6.4891,6.4848,6.4889,6.4857,6.4895,6.4877,6.4945,6.4953,6.4947,6.4942,6.495,6.4951,6.496,6.495,6.4929,6.4928,6.4927,6.4926,0,6.4795,6.478,6.4855,6.4859,6.4861,6.4915,6.4918,6.4958,6.4949,6.5004,6.5015,6.5,6.5042,6.5023,6.5067,6.5055,6.5141,6.5124,6.5136,6.5131,6.5195,6.5189,6.5411,6.5438,6.5237,6.5239,6.5241,0,6.4895,6.4946,6.4955,6.4981,6.4989,6.5032,6.5055,6.5028,6.5053,6.5073,6.5111,6.515,6.5179,6.5248,6.5241,6.5274,6.5256,6.5332,6.5261,6.5268,6.5255,6.5251,6.5255,6.5345,6.5348,6.535,6.5351,0,6.5073,6.5063,6.5098,6.5131,6.516,6.5184,6.5204,6.5228,6.5201,6.5232,6.5275,6.5298,6.5343,6.5381,6.541,6.5414,6.5378,6.5374,6.539,6.5398,6.5402,6.5399,6.5173,6.5369,6.5367,6.5366,6.5365,6.5364,6.5204,6.5246,6.5259,6.53,6.5312,6.5332,6.537,6.5367,6.5402,6.5437,6.5419,6.5469,6.5481,6.5516,6.5525,6.5563,6.5533,6.5557,6.5562,6.5568,6.5576,6.5399,6.5568,6.5568,6.5567,6.5567,6.5567,0,6.5378,6.5384,6.5422,6.5452,6.5483,6.5449,6.5469,6.5497,6.5542,6.5557,6.5587,6.5635,6.5672,6.5669,6.5702,6.5733,6.5717,6.5742,6.5738,6.574,6.5602,6.5584,6.5754,6.5754,6.5754,6.5754,6.5754,6.5754,6.5472,6.5542,6.5533,6.5608,6.5613,6.5662,6.5677,6.5694,6.5706,6.5763,6.5793,6.5791,6.5798,6.5832,6.5864,6.5861,6.5875,6.5906,6.5897,6.5768,6.575,6.5732,6.5714,6.5909,6.591,6.6032,6.6033,6.6034]}]]